Time,TemperatureF,DewpointF,PressureIn,WindDirection,WindDirectionDegrees,WindSpeedMPH,WindSpeedGustMPH,Humidity,HourlyPrecipIn,Conditions,Clouds,dailyrainin,SoftwareType,DateUTC
2013-09-04 00:01:00,74.4,70.3,29.89,ENE,75,0.0,0.0,87,0.00,,,0.00,WUHU216DAVISVP2,2013-09-04 04:01:00,
2013-09-04 00:03:00,74.4,70.3,29.89,ENE,75,0.0,0.0,87,0.00,,,0.00,WUHU216DAVISVP2,2013-09-04 04:03:00,
2013-09-04 00:08:00,74.6,70.5,29.90,ENE,75,0.0,0.0,87,0.00,,,0.00,WUHU216DAVISVP2,2013-09-04 04:08:00,
2013-09-04 00:13:00,74.6,70.5,29.90,ENE,75,0.0,0.0,87,0.00,,,0.00,WUHU216DAVISVP2,2013-09-04 04:13:00,
2013-09-04 00:16:00,74.4,70.3,29.90,ENE,75,0.0,0.0,87,0.00,,,0.00,WUHU216DAVISVP2,2013-09-04 04:16:00,
2013-09-04 00:30:00,74.6,70.8,29.90,ENE,75,0.0,0.0,88,0.00,,,0.00,WUHU216DAVISVP2,2013-09-04 04:30:00,
2013-09-04 00:35:00,74.6,70.8,29.90,ENE,75,0.0,0.0,88,0.00,,,0.00,WUHU216DAVISVP2,2013-09-04 04:35:00,
2013-09-04 00:40:00,74.7,70.9,29.91,ENE,75,0.0,0.0,88,0.00,,,0.00,WUHU216DAVISVP2,2013-09-04 04:40:00,
2013-09-04 00:45:00,74.7,70.9,29.91,ENE,75,0.0,0.0,88,0.00,,,0.00,WUHU216DAVISVP2,2013-09-04 04:45:00,
2013-09-04 00:50:00,74.7,70.9,29.91,ENE,75,0.0,0.0,88,0.00,,,0.00,WUHU216DAVISVP2,2013-09-04 04:50:00,
2013-09-04 00:55:00,74.7,70.9,29.91,ENE,75,0.0,0.0,88,0.00,,,0.00,WUHU216DAVISVP2,2013-09-04 04:55:00,
2013-09-04 01:00:00,74.6,70.8,29.91,ENE,75,0.0,0.0,88,0.00,,,0.00,WUHU216DAVISVP2,2013-09-04 05:00:00,
2013-09-04 01:05:00,74.6,70.8,29.91,ENE,75,0.0,0.0,88,0.00,,,0.00,WUHU216DAVISVP2,2013-09-04 05:05:00,
2013-09-04 01:10:00,74.4,70.6,29.90,ENE,75,0.0,0.0,88,0.00,,,0.00,WUHU216DAVISVP2,2013-09-04 05:10:00,
2013-09-04 01:15:00,74.2,70.4,29.90,ENE,75,0.0,0.0,88,0.00,,,0.00,WUHU216DAVISVP2,2013-09-04 05:15:00,
2013-09-04 01:20:00,74.2,70.4,29.90,ENE,75,0.0,0.0,88,0.00,,,0.00,WUHU216DAVISVP2,2013-09-04 05:20:00,
2013-09-04 01:25:00,74.2,70.7,29.90,ENE,75,0.0,0.0,89,0.00,,,0.00,WUHU216DAVISVP2,2013-09-04 05:25:00,
2013-09-04 01:30:00,74.2,70.4,29.90,ENE,75,0.0,0.0,88,0.00,,,0.00,WUHU216DAVISVP2,2013-09-04 05:30:00,
2013-09-04 01:35:00,74.0,70.2,29.90,ENE,75,0.0,0.0,88,0.00,,,0.00,WUHU216DAVISVP2,2013-09-04 05:35:00,
2013-09-04 01:40:00,74.0,70.6,29.90,ENE,75,0.0,0.0,89,0.00,,,0.00,WUHU216DAVISVP2,2013-09-04 05:40:00,
2013-09-04 01:45:00,74.0,70.5,29.90,ENE,75,0.0,0.0,89,0.00,,,0.00,WUHU216DAVISVP2,2013-09-04 05:45:00,
2013-09-04 01:50:00,74.0,70.5,29.90,ENE,75,0.0,0.0,89,0.00,,,0.00,WUHU216DAVISVP2,2013-09-04 05:50:00,
2013-09-04 01:55:00,74.0,70.5,29.90,ENE,75,0.0,0.0,89,0.00,,,0.00,WUHU216DAVISVP2,2013-09-04 05:55:00,
2013-09-04 02:00:00,74.0,70.5,29.90,ENE,75,0.0,0.0,89,0.00,,,0.00,WUHU216DAVISVP2,2013-09-04 06:00:00,
2013-09-04 02:05:00,73.9,70.5,29.90,ENE,75,0.0,0.0,89,0.00,,,0.00,WUHU216DAVISVP2,2013-09-04 06:05:00,
2013-09-04 02:10:00,73.9,70.4,29.90,ENE,75,0.0,0.0,89,0.00,,,0.00,WUHU216DAVISVP2,2013-09-04 06:10:00,
2013-09-04 02:15:00,73.7,70.3,29.90,ENE,75,0.0,0.0,89,0.00,,,0.00,WUHU216DAVISVP2,2013-09-04 06:15:00,
2013-09-04 02:20:00,73.7,70.3,29.90,ENE,75,0.0,0.0,89,0.00,,,0.00,WUHU216DAVISVP2,2013-09-04 06:20:00,
2013-09-04 02:25:00,73.7,70.3,29.91,ENE,75,0.0,0.0,89,0.00,,,0.00,WUHU216DAVISVP2,2013-09-04 06:25:00,
2013-09-04 02:30:00,73.7,70.3,29.91,ENE,75,0.0,0.0,89,0.00,,,0.00,WUHU216DAVISVP2,2013-09-04 06:30:00,
2013-09-04 02:35:00,73.7,70.3,29.91,ENE,75,0.0,0.0,89,0.00,,,0.00,WUHU216DAVISVP2,2013-09-04 06:35:00,
2013-09-04 02:40:00,73.7,70.3,29.91,ENE,75,0.0,0.0,89,0.00,,,0.00,WUHU216DAVISVP2,2013-09-04 06:40:00,
2013-09-04 02:47:00,73.5,70.1,29.91,ENE,75,0.0,0.0,89,0.00,,,0.00,WUHU216DAVISVP2,2013-09-04 06:47:00,
2013-09-04 02:52:00,73.7,70.3,29.91,ENE,75,0.0,0.0,89,0.00,,,0.00,WUHU216DAVISVP2,2013-09-04 06:52:00,
2013-09-04 02:57:00,73.7,70.3,29.91,ENE,75,0.0,0.0,89,0.00,,,0.00,WUHU216DAVISVP2,2013-09-04 06:57:00,
2013-09-04 03:02:00,73.5,70.1,29.91,ENE,75,0.0,0.0,89,0.00,,,0.00,WUHU216DAVISVP2,2013-09-04 07:02:00,
2013-09-04 03:07:00,73.3,70.2,29.91,ENE,75,0.0,0.0,90,0.00,,,0.00,WUHU216DAVISVP2,2013-09-04 07:07:00,
2013-09-04 03:12:00,73.2,70.1,29.91,ENE,75,0.0,0.0,90,0.00,,,0.00,WUHU216DAVISVP2,2013-09-04 07:12:00,
2013-09-04 03:17:00,73.2,70.1,29.91,ENE,75,0.0,0.0,90,0.00,,,0.00,WUHU216DAVISVP2,2013-09-04 07:17:00,
2013-09-04 03:22:00,73.2,70.1,29.91,ENE,75,0.0,0.0,90,0.00,,,0.00,WUHU216DAVISVP2,2013-09-04 07:22:00,
2013-09-04 03:27:00,73.0,69.9,29.91,ENE,75,0.0,0.0,90,0.00,,,0.00,WUHU216DAVISVP2,2013-09-04 07:27:00,
2013-09-04 03:32:00,73.0,69.9,29.91,ENE,75,0.0,0.0,90,0.00,,,0.00,WUHU216DAVISVP2,2013-09-04 07:32:00,
2013-09-04 03:37:00,72.8,69.7,29.91,ENE,75,0.0,0.0,90,0.00,,,0.00,WUHU216DAVISVP2,2013-09-04 07:37:00,
2013-09-04 03:42:00,72.8,69.7,29.91,ENE,75,0.0,0.0,90,0.00,,,0.00,WUHU216DAVISVP2,2013-09-04 07:42:00,
2013-09-04 03:47:00,72.7,69.6,29.91,ENE,75,0.0,0.0,90,0.00,,,0.00,WUHU216DAVISVP2,2013-09-04 07:47:00,
2013-09-04 03:52:00,72.7,69.6,29.91,ENE,75,0.0,0.0,90,0.00,,,0.00,WUHU216DAVISVP2,2013-09-04 07:52:00,
2013-09-04 03:57:00,72.7,69.6,29.91,ENE,75,0.0,0.0,90,0.00,,,0.00,WUHU216DAVISVP2,2013-09-04 07:57:00,
2013-09-04 04:02:00,72.5,69.4,29.91,ENE,75,0.0,0.0,90,0.00,,,0.00,WUHU216DAVISVP2,2013-09-04 08:02:00,
2013-09-04 04:04:00,72.5,69.4,29.91,ENE,75,0.0,0.0,90,0.00,,,0.00,WUHU216DAVISVP2,2013-09-04 08:04:00,
2013-09-04 04:09:00,72.7,69.6,29.92,ENE,75,0.0,0.0,90,0.00,,,0.00,WUHU216DAVISVP2,2013-09-04 08:09:00,
2013-09-04 04:15:00,72.5,69.4,29.92,ENE,75,0.0,0.0,90,0.00,,,0.00,WUHU216DAVISVP2,2013-09-04 08:15:00,
2013-09-04 04:21:00,72.3,69.2,29.92,ENE,75,0.0,0.0,90,0.00,,,0.00,WUHU216DAVISVP2,2013-09-04 08:21:00,
2013-09-04 04:33:00,72.8,69.7,29.92,ENE,75,0.0,0.0,90,0.00,,,0.00,WUHU216DAVISVP2,2013-09-04 08:33:00,
2013-09-04 04:38:00,72.7,69.6,29.93,ENE,75,0.0,0.0,90,0.00,,,0.00,WUHU216DAVISVP2,2013-09-04 08:38:00,
2013-09-04 04:43:00,72.8,69.7,29.93,ENE,75,0.0,0.0,90,0.00,,,0.00,WUHU216DAVISVP2,2013-09-04 08:43:00,
2013-09-04 04:48:00,72.7,69.6,29.93,ENE,75,0.0,0.0,90,0.00,,,0.00,WUHU216DAVISVP2,2013-09-04 08:48:00,
2013-09-04 04:53:00,72.8,69.7,29.93,ENE,75,0.0,0.0,90,0.00,,,0.00,WUHU216DAVISVP2,2013-09-04 08:53:00,
2013-09-04 04:58:00,72.8,69.7,29.93,ENE,75,0.0,0.0,90,0.00,,,0.00,WUHU216DAVISVP2,2013-09-04 08:58:00,
2013-09-04 05:03:00,72.8,69.7,29.93,ENE,75,0.0,0.0,90,0.00,,,0.00,WUHU216DAVISVP2,2013-09-04 09:03:00,
2013-09-04 05:08:00,72.7,69.6,29.94,ENE,75,0.0,0.0,90,0.00,,,0.00,WUHU216DAVISVP2,2013-09-04 09:08:00,
2013-09-04 05:13:00,72.7,69.6,29.94,ENE,75,0.0,0.0,90,0.00,,,0.00,WUHU216DAVISVP2,2013-09-04 09:13:00,
2013-09-04 05:18:00,72.3,69.2,29.94,ENE,75,0.0,0.0,90,0.00,,,0.00,WUHU216DAVISVP2,2013-09-04 09:18:00,
2013-09-04 05:23:00,72.7,69.6,29.94,ENE,75,0.0,0.0,90,0.00,,,0.00,WUHU216DAVISVP2,2013-09-04 09:23:00,
2013-09-04 05:28:00,72.3,69.2,29.94,ENE,75,0.0,0.0,90,0.00,,,0.00,WUHU216DAVISVP2,2013-09-04 09:28:00,
2013-09-04 05:33:00,72.5,69.4,29.94,ENE,75,0.0,0.0,90,0.00,,,0.00,WUHU216DAVISVP2,2013-09-04 09:33:00,
2013-09-04 05:38:00,72.3,69.2,29.94,ENE,75,0.0,0.0,90,0.00,,,0.00,WUHU216DAVISVP2,2013-09-04 09:38:00,
2013-09-04 05:43:00,72.0,68.9,29.94,ENE,75,0.0,0.0,90,0.00,,,0.00,WUHU216DAVISVP2,2013-09-04 09:43:00,
2013-09-04 05:48:00,72.3,69.2,29.94,ENE,75,0.0,0.0,90,0.00,,,0.00,WUHU216DAVISVP2,2013-09-04 09:48:00,
2013-09-04 05:53:00,72.3,69.2,29.95,ENE,75,0.0,0.0,90,0.00,,,0.00,WUHU216DAVISVP2,2013-09-04 09:53:00,
2013-09-04 05:58:00,72.3,69.2,29.95,ENE,75,0.0,0.0,90,0.00,,,0.00,WUHU216DAVISVP2,2013-09-04 09:58:00,
2013-09-04 06:03:00,72.0,68.9,29.95,ENE,75,0.0,0.0,90,0.00,,,0.00,WUHU216DAVISVP2,2013-09-04 10:03:00,
2013-09-04 06:08:00,72.0,68.9,29.95,ENE,75,0.0,0.0,90,0.00,,,0.00,WUHU216DAVISVP2,2013-09-04 10:08:00,
2013-09-04 06:13:00,72.3,69.2,29.95,ENE,75,0.0,0.0,90,0.00,,,0.00,WUHU216DAVISVP2,2013-09-04 10:13:00,
2013-09-04 06:18:00,72.3,69.2,29.95,ENE,75,0.0,0.0,90,0.00,,,0.00,WUHU216DAVISVP2,2013-09-04 10:18:00,
2013-09-04 06:24:00,72.1,69.0,29.96,ENE,75,0.0,0.0,90,0.00,,,0.00,WUHU216DAVISVP2,2013-09-04 10:24:00,
2013-09-04 06:29:00,72.1,69.0,29.96,ENE,75,0.0,0.0,90,0.00,,,0.00,WUHU216DAVISVP2,2013-09-04 10:29:00,
2013-09-04 06:34:00,72.1,69.0,29.96,ENE,75,0.0,0.0,90,0.00,,,0.00,WUHU216DAVISVP2,2013-09-04 10:34:00,
2013-09-04 06:39:00,72.1,69.0,29.97,ENE,75,0.0,0.0,90,0.00,,,0.00,WUHU216DAVISVP2,2013-09-04 10:39:00,
2013-09-04 06:44:00,72.1,69.0,29.97,ENE,75,0.0,0.0,90,0.00,,,0.00,WUHU216DAVISVP2,2013-09-04 10:44:00,
2013-09-04 06:49:00,72.1,69.0,29.97,ENE,75,0.0,0.0,90,0.00,,,0.00,WUHU216DAVISVP2,2013-09-04 10:49:00,
2013-09-04 06:54:00,72.1,69.0,29.97,ENE,75,0.0,0.0,90,0.00,,,0.00,WUHU216DAVISVP2,2013-09-04 10:54:00,
2013-09-04 06:59:00,72.1,69.0,29.97,ENE,75,0.0,0.0,90,0.00,,,0.00,WUHU216DAVISVP2,2013-09-04 10:59:00,
2013-09-04 07:04:00,72.0,68.9,29.97,ENE,72,0.0,0.0,90,0.00,,,0.00,WUHU216DAVISVP2,2013-09-04 11:04:00,
2013-09-04 07:09:00,72.0,68.9,29.97,ENE,72,0.0,0.0,90,0.00,,,0.00,WUHU216DAVISVP2,2013-09-04 11:09:00,
2013-09-04 07:14:00,72.0,68.9,29.97,ENE,72,0.0,0.0,90,0.00,,,0.00,WUHU216DAVISVP2,2013-09-04 11:14:00,
2013-09-04 07:19:00,71.8,68.7,29.97,ENE,71,0.0,0.0,90,0.00,,,0.00,WUHU216DAVISVP2,2013-09-04 11:19:00,
2013-09-04 07:24:00,71.8,68.7,29.99,ENE,71,0.0,0.0,90,0.00,,,0.00,WUHU216DAVISVP2,2013-09-04 11:24:00,
2013-09-04 07:29:00,71.6,68.5,29.99,ENE,71,0.0,0.0,90,0.00,,,0.00,WUHU216DAVISVP2,2013-09-04 11:29:00,
2013-09-04 07:34:00,71.6,68.5,29.99,ENE,71,0.0,0.0,90,0.00,,,0.00,WUHU216DAVISVP2,2013-09-04 11:34:00,
2013-09-04 07:39:00,71.6,68.5,30.00,ENE,71,0.0,0.0,90,0.00,,,0.00,WUHU216DAVISVP2,2013-09-04 11:39:00,
2013-09-04 07:44:00,71.5,68.4,30.00,ENE,71,0.0,0.0,90,0.00,,,0.00,WUHU216DAVISVP2,2013-09-04 11:44:00,
2013-09-04 07:49:00,71.5,68.4,30.00,ENE,71,0.0,0.0,90,0.00,,,0.00,WUHU216DAVISVP2,2013-09-04 11:49:00,
2013-09-04 07:54:00,71.5,68.4,30.00,ENE,71,0.0,0.0,90,0.00,,,0.00,WUHU216DAVISVP2,2013-09-04 11:54:00,
2013-09-04 07:59:00,71.5,68.4,30.00,ENE,71,0.0,0.0,90,0.00,,,0.00,WUHU216DAVISVP2,2013-09-04 11:59:00,
2013-09-04 08:04:00,71.6,68.5,30.00,ENE,71,0.0,0.0,90,0.00,,,0.00,WUHU216DAVISVP2,2013-09-04 12:04:00,
2013-09-04 08:09:00,71.6,68.5,30.00,ENE,69,0.0,0.0,90,0.00,,,0.00,WUHU216DAVISVP2,2013-09-04 12:09:00,
2013-09-04 08:14:00,71.6,68.5,30.00,ENE,61,0.0,0.0,90,0.00,,,0.00,WUHU216DAVISVP2,2013-09-04 12:14:00,
2013-09-04 08:19:00,71.6,68.5,30.00,ENE,59,0.0,0.0,90,0.00,,,0.00,WUHU216DAVISVP2,2013-09-04 12:19:00,
2013-09-04 08:24:00,71.5,68.4,30.01,ENE,59,0.0,0.0,90,0.00,,,0.00,WUHU216DAVISVP2,2013-09-04 12:24:00,
2013-09-04 08:29:00,71.3,67.9,30.01,ENE,59,0.0,0.0,89,0.00,,,0.00,WUHU216DAVISVP2,2013-09-04 12:29:00,
2013-09-04 08:34:00,71.1,67.7,30.01,ENE,59,0.0,0.0,89,0.00,,,0.00,WUHU216DAVISVP2,2013-09-04 12:34:00,
2013-09-04 08:39:00,70.8,67.4,30.01,ENE,59,0.0,0.0,89,0.00,,,0.00,WUHU216DAVISVP2,2013-09-04 12:39:00,
2013-09-04 08:44:00,71.3,67.9,30.01,ENE,59,0.0,0.0,89,0.00,,,0.00,WUHU216DAVISVP2,2013-09-04 12:44:00,
2013-09-04 08:49:00,71.3,67.6,30.01,ENE,64,0.0,0.0,88,0.00,,,0.00,WUHU216DAVISVP2,2013-09-04 12:49:00,
2013-09-04 08:54:00,71.3,67.2,30.02,East,95,0.0,7.0,87,0.00,,,0.00,WUHU216DAVISVP2,2013-09-04 12:54:00,
2013-09-04 09:00:00,71.5,67.1,30.02,North,10,1.0,7.0,86,0.00,,,0.00,WUHU216DAVISVP2,2013-09-04 13:00:00,
2013-09-04 09:05:00,71.5,66.8,30.02,ESE,104,2.0,2.0,85,0.00,,,0.00,WUHU216DAVISVP2,2013-09-04 13:05:00,
2013-09-04 09:10:00,71.6,66.9,30.02,WNW,302,0.0,2.0,85,0.00,,,0.00,WUHU216DAVISVP2,2013-09-04 13:10:00,
2013-09-04 09:15:00,72.1,67.0,30.02,North,4,1.0,2.0,84,0.00,,,0.00,WUHU216DAVISVP2,2013-09-04 13:15:00,
2013-09-04 09:20:00,72.5,67.1,30.02,East,95,1.0,4.0,83,0.00,,,0.00,WUHU216DAVISVP2,2013-09-04 13:20:00,
2013-09-04 09:25:00,72.7,66.5,30.03,ENE,75,0.0,4.0,81,0.00,,,0.00,WUHU216DAVISVP2,2013-09-04 13:25:00,
2013-09-04 09:30:00,73.2,67.0,30.03,NE,49,0.0,4.0,81,0.00,,,0.00,WUHU216DAVISVP2,2013-09-04 13:30:00,
2013-09-04 09:34:00,73.5,66.9,30.03,North,0,0.0,1.0,80,0.00,,,0.00,WUHU216DAVISVP2,2013-09-04 13:34:00,
2013-09-04 09:39:00,73.9,67.3,30.04,SW,222,0.0,2.0,80,0.00,,,0.00,WUHU216DAVISVP2,2013-09-04 13:39:00,
2013-09-04 09:44:00,74.4,67.6,30.04,East,79,0.0,2.0,79,0.00,,,0.00,WUHU216DAVISVP2,2013-09-04 13:44:00,
2013-09-04 09:49:00,74.6,67.0,30.04,SSE,160,0.0,4.0,77,0.00,,,0.00,WUHU216DAVISVP2,2013-09-04 13:49:00,
2013-09-04 09:54:00,74.7,67.0,30.04,WNW,289,0.0,6.0,77,0.00,,,0.00,WUHU216DAVISVP2,2013-09-04 13:54:00,
2013-09-04 09:59:00,75.3,67.4,30.04,SW,230,0.0,6.0,76,0.00,,,0.00,WUHU216DAVISVP2,2013-09-04 13:59:00,
2013-09-04 10:04:00,75.6,67.6,30.04,SW,236,0.0,1.0,76,0.00,,,0.00,WUHU216DAVISVP2,2013-09-04 14:04:00,
2013-09-04 10:09:00,75.8,66.9,30.04,SW,215,0.0,2.0,74,0.00,,,0.00,WUHU216DAVISVP2,2013-09-04 14:09:00,
2013-09-04 10:14:00,76.0,67.1,30.04,North,353,0.0,2.0,74,0.00,,,0.00,WUHU216DAVISVP2,2013-09-04 14:14:00,
2013-09-04 10:19:00,76.1,67.0,30.04,East,83,0.0,2.0,73,0.00,,,0.00,WUHU216DAVISVP2,2013-09-04 14:19:00,
2013-09-04 10:24:00,76.1,66.6,30.05,SSE,161,0.0,2.0,72,0.00,,,0.00,WUHU216DAVISVP2,2013-09-04 14:24:00,
2013-09-04 10:29:00,76.3,66.4,30.05,East,93,0.0,2.0,71,0.00,,,0.00,WUHU216DAVISVP2,2013-09-04 14:29:00,
2013-09-04 10:34:00,76.1,66.0,30.05,East,99,0.0,2.0,71,0.00,,,0.00,WUHU216DAVISVP2,2013-09-04 14:34:00,
2013-09-04 10:39:00,76.5,66.0,30.05,East,100,0.0,4.0,70,0.00,,,0.00,WUHU216DAVISVP2,2013-09-04 14:39:00,
2013-09-04 10:44:00,76.8,66.9,30.05,East,99,0.0,4.0,71,0.00,,,0.00,WUHU216DAVISVP2,2013-09-04 14:44:00,
2013-09-04 10:49:00,77.0,66.7,30.05,East,97,0.0,4.0,70,0.00,,,0.00,WUHU216DAVISVP2,2013-09-04 14:49:00,
2013-09-04 10:54:00,77.0,66.7,30.05,East,99,0.0,1.0,70,0.00,,,0.00,WUHU216DAVISVP2,2013-09-04 14:54:00,
2013-09-04 10:59:00,77.4,67.3,30.05,East,89,0.0,1.0,71,0.00,,,0.00,WUHU216DAVISVP2,2013-09-04 14:59:00,
2013-09-04 11:04:00,77.6,67.0,30.05,ENE,76,1.0,2.0,70,0.00,,,0.00,WUHU216DAVISVP2,2013-09-04 15:04:00,
2013-09-04 11:09:00,77.7,66.5,30.05,East,96,0.0,2.0,68,0.00,,,0.00,WUHU216DAVISVP2,2013-09-04 15:09:00,
2013-09-04 11:14:00,77.9,66.3,30.05,NE,38,0.0,2.0,67,0.00,,,0.00,WUHU216DAVISVP2,2013-09-04 15:14:00,
2013-09-04 11:19:00,78.1,67.1,30.05,NE,37,1.0,1.0,69,0.00,,,0.00,WUHU216DAVISVP2,2013-09-04 15:19:00,
2013-09-04 11:24:00,78.3,67.5,30.05,ESE,117,0.0,1.0,69,0.00,,,0.00,WUHU216DAVISVP2,2013-09-04 15:24:00,
2013-09-04 11:29:00,78.5,67.3,30.05,East,83,0.0,2.0,68,0.00,,,0.00,WUHU216DAVISVP2,2013-09-04 15:29:00,
2013-09-04 11:34:00,78.5,66.6,30.05,NNW,337,0.0,2.0,67,0.00,,,0.00,WUHU216DAVISVP2,2013-09-04 15:34:00,
2013-09-04 11:39:00,78.3,66.4,30.05,NNW,344,0.0,2.0,67,0.00,,,0.00,WUHU216DAVISVP2,2013-09-04 15:39:00,
2013-09-04 11:45:00,78.6,67.0,30.05,NE,34,0.0,1.0,67,0.00,,,0.00,WUHU216DAVISVP2,2013-09-04 15:45:00,
2013-09-04 11:50:00,78.6,67.0,30.05,NE,42,0.0,1.0,67,0.00,,,0.00,WUHU216DAVISVP2,2013-09-04 15:50:00,
2013-09-04 11:55:00,78.8,67.1,30.05,South,174,0.0,1.0,67,0.00,,,0.00,WUHU216DAVISVP2,2013-09-04 15:55:00,
2013-09-04 12:00:00,79.4,67.7,30.05,NE,48,0.0,1.0,67,0.00,,,0.00,WUHU216DAVISVP2,2013-09-04 16:00:00,
2013-09-04 12:05:00,79.4,67.3,30.05,ESE,102,0.0,2.0,66,0.00,,,0.00,WUHU216DAVISVP2,2013-09-04 16:05:00,
2013-09-04 12:10:00,79.4,66.6,30.05,East,90,0.0,2.0,65,0.00,,,0.00,WUHU216DAVISVP2,2013-09-04 16:10:00,
2013-09-04 12:15:00,79.6,67.0,30.05,ESE,102,0.0,2.0,65,0.00,,,0.00,WUHU216DAVISVP2,2013-09-04 16:15:00,
2013-09-04 12:20:00,79.8,67.2,30.05,ESE,120,0.0,1.0,65,0.00,,,0.00,WUHU216DAVISVP2,2013-09-04 16:20:00,
2013-09-04 12:25:00,79.9,67.1,30.05,ESE,112,0.0,2.0,65,0.00,,,0.00,WUHU216DAVISVP2,2013-09-04 16:25:00,
2013-09-04 12:30:00,80.3,67.7,30.05,ESE,104,0.0,2.0,65,0.00,,,0.00,WUHU216DAVISVP2,2013-09-04 16:30:00,
2013-09-04 12:35:00,80.1,67.1,30.05,ENE,72,0.0,7.0,64,0.00,,,0.00,WUHU216DAVISVP2,2013-09-04 16:35:00,
2013-09-04 12:40:00,80.5,68.1,30.05,ENE,72,1.0,7.0,66,0.00,,,0.00,WUHU216DAVISVP2,2013-09-04 16:40:00,
2013-09-04 12:45:00,81.1,68.5,30.05,ENE,73,0.0,1.0,65,0.00,,,0.00,WUHU216DAVISVP2,2013-09-04 16:45:00,
2013-09-04 12:50:00,80.9,67.8,30.05,SW,229,0.0,2.0,64,0.00,,,0.00,WUHU216DAVISVP2,2013-09-04 16:50:00,
2013-09-04 12:55:00,80.7,67.2,30.04,ENE,73,0.0,2.0,63,0.00,,,0.00,WUHU216DAVISVP2,2013-09-04 16:55:00,
2013-09-04 13:00:00,80.7,67.8,30.04,East,85,1.0,2.0,65,0.00,,,0.00,WUHU216DAVISVP2,2013-09-04 17:00:00,
2013-09-04 13:06:00,81.2,68.6,30.04,NE,54,1.0,2.0,65,0.00,,,0.00,WUHU216DAVISVP2,2013-09-04 17:06:00,
2013-09-04 13:11:00,81.1,67.6,30.04,East,79,0.0,2.0,63,0.00,,,0.00,WUHU216DAVISVP2,2013-09-04 17:11:00,
2013-09-04 13:15:00,81.4,69.2,30.04,SW,227,0.0,2.0,66,0.00,,,0.00,WUHU216DAVISVP2,2013-09-04 17:15:00,
2013-09-04 13:21:00,82.0,69.8,30.04,North,357,0.0,2.0,66,0.00,,,0.00,WUHU216DAVISVP2,2013-09-04 17:21:00,
2013-09-04 13:27:00,82.2,68.1,30.04,East,96,0.0,2.0,62,0.00,,,0.00,WUHU216DAVISVP2,2013-09-04 17:27:00,
2013-09-04 13:32:00,82.4,68.8,30.04,East,96,1.0,2.0,63,0.00,,,0.00,WUHU216DAVISVP2,2013-09-04 17:32:00,
2013-09-04 13:37:00,82.2,69.1,30.04,NNE,31,0.0,2.0,64,0.00,,,0.00,WUHU216DAVISVP2,2013-09-04 17:37:00,
2013-09-04 13:42:00,81.8,67.5,30.03,ENE,58,0.0,2.0,62,0.00,,,0.00,WUHU216DAVISVP2,2013-09-04 17:42:00,
2013-09-04 13:49:00,81.2,68.1,30.03,NNE,31,0.0,2.0,64,0.00,,,0.00,WUHU216DAVISVP2,2013-09-04 17:49:00,
2013-09-04 13:54:00,81.8,68.2,30.03,NNE,31,0.0,1.0,63,0.00,,,0.00,WUHU216DAVISVP2,2013-09-04 17:54:00,
2013-09-04 13:59:00,82.6,69.2,30.03,NNE,25,0.0,0.0,64,0.00,,,0.00,WUHU216DAVISVP2,2013-09-04 17:59:00,
2013-09-04 14:04:00,83.4,69.7,30.03,NNE,25,0.0,0.0,63,0.00,,,0.00,WUHU216DAVISVP2,2013-09-04 18:04:00,
2013-09-04 14:09:00,83.8,70.1,30.03,NNE,23,0.0,0.0,63,0.00,,,0.00,WUHU216DAVISVP2,2013-09-04 18:09:00,
2013-09-04 14:14:00,83.8,69.4,30.03,NW,315,0.0,6.0,62,0.00,,,0.00,WUHU216DAVISVP2,2013-09-04 18:14:00,
2013-09-04 14:20:00,83.2,68.8,30.03,NNE,23,0.0,2.0,62,0.00,,,0.00,WUHU216DAVISVP2,2013-09-04 18:20:00,
2013-09-04 14:25:00,83.2,69.1,30.03,NNE,23,0.0,1.0,62,0.00,,,0.00,WUHU216DAVISVP2,2013-09-04 18:25:00,
2013-09-04 14:30:00,83.0,68.9,30.03,NNE,23,0.0,0.0,62,0.00,,,0.00,WUHU216DAVISVP2,2013-09-04 18:30:00,
2013-09-04 14:35:00,82.8,69.2,30.03,NNE,24,0.0,0.0,63,0.00,,,0.00,WUHU216DAVISVP2,2013-09-04 18:35:00,
2013-09-04 14:41:00,82.8,69.2,30.03,NE,51,0.0,0.0,63,0.00,,,0.00,WUHU216DAVISVP2,2013-09-04 18:41:00,
2013-09-04 14:46:00,82.6,69.0,30.03,NE,51,0.0,0.0,63,0.00,,,0.00,WUHU216DAVISVP2,2013-09-04 18:46:00,
2013-09-04 14:50:00,82.4,68.8,30.03,NE,51,0.0,0.0,63,0.00,,,0.00,WUHU216DAVISVP2,2013-09-04 18:50:00,
2013-09-04 14:55:00,82.0,69.1,30.02,NE,51,0.0,0.0,65,0.00,,,0.00,WUHU216DAVISVP2,2013-09-04 18:55:00,
2013-09-04 15:00:00,81.8,69.1,30.02,NE,51,0.0,0.0,65,0.00,,,0.00,WUHU216DAVISVP2,2013-09-04 19:00:00,
2013-09-04 15:06:00,81.6,68.9,30.02,NE,51,0.0,0.0,65,0.00,,,0.00,WUHU216DAVISVP2,2013-09-04 19:06:00,
2013-09-04 15:11:00,81.6,69.6,30.01,NE,51,0.0,0.0,67,0.00,,,0.00,WUHU216DAVISVP2,2013-09-04 19:11:00,
2013-09-04 15:16:00,82.0,69.8,30.01,NE,51,0.0,0.0,66,0.00,,,0.00,WUHU216DAVISVP2,2013-09-04 19:16:00,
2013-09-04 15:21:00,82.6,70.8,30.01,NE,51,0.0,0.0,67,0.00,,,0.00,WUHU216DAVISVP2,2013-09-04 19:21:00,
2013-09-04 15:26:00,82.8,69.8,30.01,NE,51,0.0,0.0,65,0.00,,,0.00,WUHU216DAVISVP2,2013-09-04 19:26:00,
2013-09-04 15:31:00,83.2,70.5,30.01,NE,56,0.0,0.0,65,0.00,,,0.00,WUHU216DAVISVP2,2013-09-04 19:31:00,
2013-09-04 15:36:00,83.6,70.9,30.01,NE,56,0.0,0.0,65,0.00,,,0.00,WUHU216DAVISVP2,2013-09-04 19:36:00,
2013-09-04 15:41:00,83.6,70.1,30.01,NE,56,0.0,0.0,64,0.00,,,0.00,WUHU216DAVISVP2,2013-09-04 19:41:00,
2013-09-04 15:46:00,83.8,70.6,30.01,NE,56,0.0,0.0,64,0.00,,,0.00,WUHU216DAVISVP2,2013-09-04 19:46:00,
2013-09-04 15:51:00,84.0,71.4,30.01,NE,56,0.0,0.0,66,0.00,,,0.00,WUHU216DAVISVP2,2013-09-04 19:51:00,
2013-09-04 15:56:00,84.0,71.7,30.00,East,96,0.0,0.0,66,0.00,,,0.00,WUHU216DAVISVP2,2013-09-04 19:56:00,
2013-09-04 16:01:00,83.8,70.1,30.00,East,90,0.0,0.0,63,0.00,,,0.00,WUHU216DAVISVP2,2013-09-04 20:01:00,
2013-09-04 16:06:00,83.8,70.6,30.00,East,100,0.0,2.0,64,0.00,,,0.00,WUHU216DAVISVP2,2013-09-04 20:06:00,
2013-09-04 16:11:00,83.8,70.3,30.00,ENE,69,0.0,2.0,64,0.00,,,0.00,WUHU216DAVISVP2,2013-09-04 20:11:00,
2013-09-04 16:16:00,84.1,70.4,30.00,ENE,69,0.0,2.0,63,0.00,,,0.00,WUHU216DAVISVP2,2013-09-04 20:16:00,
2013-09-04 16:21:00,84.7,70.2,30.00,ENE,69,0.0,0.0,62,0.00,,,0.00,WUHU216DAVISVP2,2013-09-04 20:21:00,
2013-09-04 16:26:00,85.1,71.8,30.00,ENE,69,0.0,0.0,64,0.00,,,0.00,WUHU216DAVISVP2,2013-09-04 20:26:00,
2013-09-04 16:31:00,85.5,71.0,30.00,ENE,69,0.0,0.0,62,0.00,,,0.00,WUHU216DAVISVP2,2013-09-04 20:31:00,
2013-09-04 16:36:00,85.5,72.2,30.00,ENE,69,0.0,0.0,64,0.00,,,0.00,WUHU216DAVISVP2,2013-09-04 20:36:00,
2013-09-04 16:41:00,85.5,70.8,29.99,ENE,69,0.0,0.0,61,0.00,,,0.00,WUHU216DAVISVP2,2013-09-04 20:41:00,
2013-09-04 16:46:00,85.7,70.7,29.99,ENE,69,0.0,0.0,61,0.00,,,0.00,WUHU216DAVISVP2,2013-09-04 20:46:00,
2013-09-04 16:51:00,85.7,71.2,29.99,ENE,69,0.0,0.0,62,0.00,,,0.00,WUHU216DAVISVP2,2013-09-04 20:51:00,
2013-09-04 16:56:00,85.1,70.9,29.99,ENE,69,0.0,0.0,62,0.00,,,0.00,WUHU216DAVISVP2,2013-09-04 20:56:00,
2013-09-04 17:01:00,85.1,70.9,29.99,ENE,69,0.0,0.0,62,0.00,,,0.00,WUHU216DAVISVP2,2013-09-04 21:01:00,
2013-09-04 17:07:00,85.3,70.3,29.99,ENE,69,0.0,0.0,61,0.00,,,0.00,WUHU216DAVISVP2,2013-09-04 21:07:00,
2013-09-04 17:12:00,85.1,70.9,29.99,ENE,69,0.0,0.0,62,0.00,,,0.00,WUHU216DAVISVP2,2013-09-04 21:12:00,
2013-09-04 17:19:00,85.3,71.6,29.99,ENE,69,0.0,0.0,63,0.00,,,0.00,WUHU216DAVISVP2,2013-09-04 21:19:00,
2013-09-04 17:24:00,85.3,70.8,29.99,ENE,69,0.0,0.0,62,0.00,,,0.00,WUHU216DAVISVP2,2013-09-04 21:24:00,
2013-09-04 17:29:00,85.3,70.6,29.99,ENE,69,0.0,0.0,61,0.00,,,0.00,WUHU216DAVISVP2,2013-09-04 21:29:00,
2013-09-04 17:34:00,85.3,70.1,29.99,ENE,69,0.0,0.0,60,0.00,,,0.00,WUHU216DAVISVP2,2013-09-04 21:34:00,
2013-09-04 17:39:00,85.3,71.1,29.99,ENE,69,0.0,0.0,62,0.00,,,0.00,WUHU216DAVISVP2,2013-09-04 21:39:00,
2013-09-04 17:44:00,84.9,70.2,29.99,ENE,69,0.0,0.0,61,0.00,,,0.00,WUHU216DAVISVP2,2013-09-04 21:44:00,
2013-09-04 17:49:00,84.9,69.7,29.99,ENE,69,0.0,0.0,60,0.00,,,0.00,WUHU216DAVISVP2,2013-09-04 21:49:00,
2013-09-04 17:54:00,84.7,70.2,29.98,ENE,69,0.0,0.0,62,0.00,,,0.00,WUHU216DAVISVP2,2013-09-04 21:54:00,
2013-09-04 17:59:00,84.3,70.6,29.98,ENE,69,0.0,0.0,63,0.00,,,0.00,WUHU216DAVISVP2,2013-09-04 21:59:00,
2013-09-04 18:04:00,84.1,70.4,29.98,ENE,69,0.0,0.0,63,0.00,,,0.00,WUHU216DAVISVP2,2013-09-04 22:04:00,
2013-09-04 18:09:00,84.0,70.3,29.99,ENE,69,0.0,0.0,63,0.00,,,0.00,WUHU216DAVISVP2,2013-09-04 22:09:00,
2013-09-04 18:14:00,83.8,70.6,29.99,ENE,69,0.0,0.0,64,0.00,,,0.00,WUHU216DAVISVP2,2013-09-04 22:14:00,
2013-09-04 18:19:00,83.2,70.5,29.99,ENE,69,0.0,0.0,65,0.00,,,0.00,WUHU216DAVISVP2,2013-09-04 22:19:00,
2013-09-04 18:24:00,82.6,70.3,29.99,ENE,69,0.0,0.0,66,0.00,,,0.00,WUHU216DAVISVP2,2013-09-04 22:24:00,
2013-09-04 18:29:00,82.0,70.2,29.99,ENE,69,0.0,0.0,67,0.00,,,0.00,WUHU216DAVISVP2,2013-09-04 22:29:00,
2013-09-04 18:34:00,81.4,70.1,29.99,ENE,69,0.0,0.0,68,0.00,,,0.00,WUHU216DAVISVP2,2013-09-04 22:34:00,
2013-09-04 18:39:00,80.9,70.0,29.99,ENE,69,0.0,0.0,69,0.00,,,0.00,WUHU216DAVISVP2,2013-09-04 22:39:00,
2013-09-04 18:44:00,80.3,69.8,29.99,ENE,69,0.0,0.0,70,0.00,,,0.00,WUHU216DAVISVP2,2013-09-04 22:44:00,
2013-09-04 18:49:00,79.9,69.5,29.99,ENE,69,0.0,0.0,70,0.00,,,0.00,WUHU216DAVISVP2,2013-09-04 22:49:00,
2013-09-04 18:54:00,79.4,69.0,29.99,ENE,69,0.0,0.0,70,0.00,,,0.00,WUHU216DAVISVP2,2013-09-04 22:54:00,
2013-09-04 18:59:00,79.0,69.0,29.99,ENE,69,0.0,0.0,71,0.00,,,0.00,WUHU216DAVISVP2,2013-09-04 22:59:00,
2013-09-04 19:04:00,78.6,68.6,29.99,ENE,69,0.0,0.0,71,0.00,,,0.00,WUHU216DAVISVP2,2013-09-04 23:04:00,
2013-09-04 19:09:00,78.3,68.3,29.99,ENE,69,0.0,0.0,71,0.00,,,0.00,WUHU216DAVISVP2,2013-09-04 23:09:00,
2013-09-04 19:14:00,77.9,68.1,29.99,ENE,69,0.0,0.0,72,0.00,,,0.00,WUHU216DAVISVP2,2013-09-04 23:14:00,
2013-09-04 19:19:00,77.7,68.0,29.99,ENE,69,0.0,0.0,72,0.00,,,0.00,WUHU216DAVISVP2,2013-09-04 23:19:00,
2013-09-04 19:24:00,77.4,67.9,29.99,ENE,69,0.0,0.0,72,0.00,,,0.00,WUHU216DAVISVP2,2013-09-04 23:24:00,
2013-09-04 19:29:00,77.2,67.9,29.99,ENE,69,0.0,0.0,73,0.00,,,0.00,WUHU216DAVISVP2,2013-09-04 23:29:00,
2013-09-04 19:34:00,76.8,67.7,29.99,ENE,69,0.0,0.0,73,0.00,,,0.00,WUHU216DAVISVP2,2013-09-04 23:34:00,
2013-09-04 19:39:00,76.7,68.0,29.99,ENE,69,0.0,0.0,74,0.00,,,0.00,WUHU216DAVISVP2,2013-09-04 23:39:00,
2013-09-04 19:44:00,76.3,67.6,29.99,ENE,69,0.0,0.0,74,0.00,,,0.00,WUHU216DAVISVP2,2013-09-04 23:44:00,
2013-09-04 19:49:00,76.0,67.3,29.99,ENE,69,0.0,0.0,74,0.00,,,0.00,WUHU216DAVISVP2,2013-09-04 23:49:00,
2013-09-04 19:54:00,75.8,67.5,30.00,ENE,69,0.0,0.0,75,0.00,,,0.00,WUHU216DAVISVP2,2013-09-04 23:54:00,
2013-09-04 19:59:00,75.4,67.1,30.00,ENE,69,0.0,0.0,75,0.00,,,0.00,WUHU216DAVISVP2,2013-09-04 23:59:00,
2013-09-04 20:04:00,75.1,66.8,30.00,ENE,69,0.0,0.0,75,0.00,,,0.00,WUHU216DAVISVP2,2013-09-05 00:04:00,
2013-09-04 20:09:00,74.9,66.6,30.00,ENE,69,0.0,0.0,75,0.00,,,0.00,WUHU216DAVISVP2,2013-09-05 00:09:00,
2013-09-04 20:14:00,74.6,66.7,30.00,ENE,69,0.0,0.0,76,0.00,,,0.00,WUHU216DAVISVP2,2013-09-05 00:14:00,
2013-09-04 20:19:00,74.4,66.5,30.00,ENE,69,0.0,0.0,76,0.00,,,0.00,WUHU216DAVISVP2,2013-09-05 00:19:00,
2013-09-04 20:24:00,74.4,66.9,30.01,ENE,69,0.0,0.0,77,0.00,,,0.00,WUHU216DAVISVP2,2013-09-05 00:24:00,
2013-09-04 20:29:00,74.4,67.1,30.01,ENE,69,0.0,0.0,78,0.00,,,0.00,WUHU216DAVISVP2,2013-09-05 00:29:00,
2013-09-04 20:35:00,74.2,67.4,30.01,ENE,69,0.0,0.0,79,0.00,,,0.00,WUHU216DAVISVP2,2013-09-05 00:35:00,
2013-09-04 20:40:00,74.2,67.7,30.01,ENE,69,0.0,0.0,80,0.00,,,0.00,WUHU216DAVISVP2,2013-09-05 00:40:00,
2013-09-04 20:45:00,74.0,67.5,30.01,ENE,69,0.0,0.0,80,0.00,,,0.00,WUHU216DAVISVP2,2013-09-05 00:45:00,
2013-09-04 20:50:00,73.9,67.4,30.01,ENE,69,0.0,0.0,80,0.00,,,0.00,WUHU216DAVISVP2,2013-09-05 00:50:00,
2013-09-04 20:55:00,73.7,67.1,30.02,ENE,69,0.0,0.0,80,0.00,,,0.00,WUHU216DAVISVP2,2013-09-05 00:55:00,
2013-09-04 21:00:00,73.5,67.0,30.02,ENE,69,0.0,0.0,80,0.00,,,0.00,WUHU216DAVISVP2,2013-09-05 01:00:00,
2013-09-04 21:05:00,73.5,67.4,30.02,ENE,69,0.0,0.0,81,0.00,,,0.00,WUHU216DAVISVP2,2013-09-05 01:05:00,
2013-09-04 21:10:00,73.3,67.2,30.02,ENE,69,0.0,0.0,81,0.00,,,0.00,WUHU216DAVISVP2,2013-09-05 01:10:00,
2013-09-04 21:15:00,73.0,66.9,30.02,ENE,69,0.0,0.0,81,0.00,,,0.00,WUHU216DAVISVP2,2013-09-05 01:15:00,
2013-09-04 21:20:00,72.8,66.6,30.02,ENE,69,0.0,0.0,81,0.00,,,0.00,WUHU216DAVISVP2,2013-09-05 01:20:00,
2013-09-04 21:25:00,72.7,66.5,30.02,ENE,69,0.0,0.0,81,0.00,,,0.00,WUHU216DAVISVP2,2013-09-05 01:25:00,
2013-09-04 21:30:00,72.7,67.3,30.02,ENE,69,0.0,0.0,83,0.00,,,0.00,WUHU216DAVISVP2,2013-09-05 01:30:00,
2013-09-04 21:35:00,72.7,67.0,30.02,ENE,69,0.0,0.0,82,0.00,,,0.00,WUHU216DAVISVP2,2013-09-05 01:35:00,
2013-09-04 21:40:00,72.5,66.8,30.03,ENE,69,0.0,0.0,82,0.00,,,0.00,WUHU216DAVISVP2,2013-09-05 01:40:00,
2013-09-04 21:45:00,72.3,66.9,30.03,ENE,69,0.0,0.0,83,0.00,,,0.00,WUHU216DAVISVP2,2013-09-05 01:45:00,
2013-09-04 21:50:00,72.3,66.9,30.03,ENE,69,0.0,0.0,83,0.00,,,0.00,WUHU216DAVISVP2,2013-09-05 01:50:00,
2013-09-04 21:55:00,72.1,66.7,30.03,ENE,69,0.0,0.0,83,0.00,,,0.00,WUHU216DAVISVP2,2013-09-05 01:55:00,
2013-09-04 22:00:00,72.0,66.6,30.03,ENE,69,0.0,0.0,83,0.00,,,0.00,WUHU216DAVISVP2,2013-09-05 02:00:00,
2013-09-04 22:05:00,72.0,66.6,30.03,ENE,69,0.0,0.0,83,0.00,,,0.00,WUHU216DAVISVP2,2013-09-05 02:05:00,
2013-09-04 22:10:00,71.8,66.4,30.03,ENE,69,0.0,0.0,83,0.00,,,0.00,WUHU216DAVISVP2,2013-09-05 02:10:00,
2013-09-04 22:15:00,71.8,66.4,30.03,ENE,69,0.0,0.0,83,0.00,,,0.00,WUHU216DAVISVP2,2013-09-05 02:15:00,
2013-09-04 22:20:00,71.6,66.2,30.03,ENE,69,0.0,0.0,83,0.00,,,0.00,WUHU216DAVISVP2,2013-09-05 02:20:00,
2013-09-04 22:25:00,71.6,66.2,30.03,ENE,69,0.0,0.0,83,0.00,,,0.00,WUHU216DAVISVP2,2013-09-05 02:25:00,
2013-09-04 22:30:00,71.5,66.1,30.03,ENE,69,0.0,0.0,83,0.00,,,0.00,WUHU216DAVISVP2,2013-09-05 02:30:00,
2013-09-04 22:35:00,71.5,66.8,30.03,ENE,69,0.0,0.0,85,0.00,,,0.00,WUHU216DAVISVP2,2013-09-05 02:35:00,
2013-09-04 22:40:00,71.5,66.8,30.04,ENE,69,0.0,0.0,85,0.00,,,0.00,WUHU216DAVISVP2,2013-09-05 02:40:00,
2013-09-04 22:45:00,71.3,66.6,30.04,ENE,69,0.0,0.0,85,0.00,,,0.00,WUHU216DAVISVP2,2013-09-05 02:45:00,
2013-09-04 22:50:00,71.3,66.6,30.04,ENE,69,0.0,0.0,85,0.00,,,0.00,WUHU216DAVISVP2,2013-09-05 02:50:00,
2013-09-04 22:55:00,71.3,66.6,30.04,ENE,69,0.0,0.0,85,0.00,,,0.00,WUHU216DAVISVP2,2013-09-05 02:55:00,
2013-09-04 23:01:00,71.3,66.6,30.04,ENE,69,0.0,0.0,85,0.00,,,0.00,WUHU216DAVISVP2,2013-09-05 03:01:00,
2013-09-04 23:06:00,71.3,66.6,30.04,ENE,69,0.0,0.0,85,0.00,,,0.00,WUHU216DAVISVP2,2013-09-05 03:06:00,
2013-09-04 23:11:00,71.3,66.6,30.04,ENE,69,0.0,0.0,85,0.00,,,0.00,WUHU216DAVISVP2,2013-09-05 03:11:00,
2013-09-04 23:16:00,71.1,66.4,30.04,ENE,69,0.0,0.0,85,0.00,,,0.00,WUHU216DAVISVP2,2013-09-05 03:16:00,
2013-09-04 23:21:00,71.1,66.4,30.04,ENE,69,0.0,0.0,85,0.00,,,0.00,WUHU216DAVISVP2,2013-09-05 03:21:00,
2013-09-04 23:26:00,71.1,66.4,30.04,ENE,69,0.0,0.0,85,0.00,,,0.00,WUHU216DAVISVP2,2013-09-05 03:26:00,
2013-09-04 23:31:00,70.9,66.2,30.04,ENE,69,0.0,0.0,85,0.00,,,0.00,WUHU216DAVISVP2,2013-09-05 03:31:00,
2013-09-04 23:36:00,70.8,66.1,30.04,ENE,69,0.0,0.0,85,0.00,,,0.00,WUHU216DAVISVP2,2013-09-05 03:36:00,
2013-09-04 23:41:00,70.8,66.1,30.04,ENE,69,0.0,0.0,85,0.00,,,0.00,WUHU216DAVISVP2,2013-09-05 03:41:00,
2013-09-04 23:46:00,70.6,65.9,30.04,ENE,69,0.0,0.0,85,0.00,,,0.00,WUHU216DAVISVP2,2013-09-05 03:46:00,
2013-09-04 23:51:00,70.6,65.9,30.04,ENE,69,0.0,0.0,85,0.00,,,0.00,WUHU216DAVISVP2,2013-09-05 03:51:00,
2013-09-04 23:56:00,70.6,65.9,30.04,ENE,69,0.0,0.0,85,0.00,,,0.00,WUHU216DAVISVP2,2013-09-05 03:56:00,